H1 CPF 2 NER 2021 11 12 9 316 01 glonass137 H2 1705501 9137 42939 2021 11 12 0 0 0 2021 11 15 23 45 0 900 1 1 0 0 0 1 H9 10 0 59530 0.00000 0 -20620291.710 918754.632 -14981923.928 10 0 59530 900.00000 0 -22273663.205 545408.013 -12417263.861 10 0 59530 1800.00000 0 -23626202.590 361356.123 -9611360.018 10 0 59530 2700.00000 0 -24635223.094 327040.018 -6618761.157 10 0 59530 3600.00000 0 -25268924.237 395736.319 -3497621.807 10 0 59530 4500.00000 0 -25507664.254 515780.871 -308569.607 10 0 59530 5400.00000 0 -25344741.276 633001.491 2886474.052 10 0 59530 6300.00000 0 -24786651.120 693256.087 6025496.846 10 0 59530 7200.00000 0 -23852811.588 644968.286 9047598.110 10 0 59530 8100.00000 0 -22574765.486 441552.906 11894167.782 10 0 59530 9000.00000 0 -20994896.329 43628.534 14510018.926 10 0 59530 9900.00000 0 -19164710.939 -579076.362 16844452.085 10 0 59530 10800.00000 0 -17142760.961 -1446204.368 18852231.397 10 0 59530 11700.00000 0 -14992290.026 -2565701.361 20494454.254 10 0 59530 12600.00000 0 -12778704.463 -3933245.352 21739298.416 10 0 59530 13500.00000 0 -10566972.349 -5532196.624 22562632.991 10 0 59530 14400.00000 0 -8419058.315 -7334072.232 22948482.203 10 0 59530 15300.00000 0 -6391499.946 -9299526.203 22889333.508 10 0 59530 16200.00000 0 -4533225.459 -11379795.938 22386284.464 10 0 59530 17100.00000 0 -2883702.314 -13518556.066 21449025.476 10 0 59530 18000.00000 0 -1471492.890 -15654103.958 20095658.422 10 0 59530 18900.00000 0 -313276.439 -17721787.325 18352354.065 10 0 59530 19800.00000 0 586622.616 -19656573.921 16252853.968 10 0 59530 20700.00000 0 1236180.844 -21395657.139 13837825.608 10 0 59530 21600.00000 0 1655099.160 -22880989.327 11154082.169 10 0 59530 22500.00000 0 1873727.877 -24061637.118 8253681.140 10 0 59530 23400.00000 0 1931538.908 -24895860.094 5192918.607 10 0 59530 24300.00000 0 1875209.833 -25352825.100 2031238.213 10 0 59530 25200.00000 0 1756401.141 -25413883.615 -1169924.124 10 0 59530 26100.00000 0 1629321.120 -25073357.725 -4348337.053 10 0 59530 27000.00000 0 1548182.176 -24338800.845 -7442188.421 10 0 59530 27900.00000 0 1564657.214 -23230721.424 -10391293.476 10 0 59530 28800.00000 0 1725444.860 -21781780.577 -13138272.232 10 0 59530 29700.00000 0 2070047.857 -20035496.986 -15629672.376 10 0 59530 30600.00000 0 2628859.895 -18044513.238 -17817015.155 10 0 59530 31500.00000 0 3421643.062 -15868496.332 -19657743.288 10 0 59530 32400.00000 0 4456461.456 -13571760.476 -21116052.165 10 0 59530 33300.00000 0 5729117.134 -11220711.815 -22163588.030 10 0 59530 34200.00000 0 7223113.201 -8881222.165 -22779999.581 10 0 59530 35100.00000 0 8910146.558 -6616041.431 -22953332.494 10 0 59530 36000.00000 0 10751110.447 -4482356.601 -22680259.457 10 0 59530 36900.00000 0 12697565.395 -2529598.762 -21966141.552 10 0 59530 37800.00000 0 14693617.457 -797588.981 -20824920.087 10 0 59530 38700.00000 0 16678125.548 684900.588 -19278841.202 10 0 59530 39600.00000 0 18587145.698 1901111.419 -17358018.810 10 0 59530 40500.00000 0 20356510.122 2846750.328 -15099844.530 10 0 59530 41400.00000 0 21924433.290 3529910.915 -12548256.171 10 0 59530 42300.00000 0 23234035.898 3970469.698 -9752879.228 10 0 59530 43200.00000 0 24235681.109 4198984.101 -6768058.244 10 0 59530 44100.00000 0 24889025.279 4255140.357 -3651797.122 10 0 59530 45000.00000 0 25164697.347 4185818.206 -464629.374 10 0 59530 45900.00000 0 25045536.725 4042855.435 2731559.435 10 0 59530 46800.00000 0 24527338.130 3880607.733 5874733.843 10 0 59530 47700.00000 0 23619072.491 3753407.772 8903911.603 10 0 59530 48600.00000 0 22342575.106 3713031.475 11760344.291 10 0 59530 49500.00000 0 20731714.444 3806278.845 14388652.617 10 0 59530 50400.00000 0 18831076.645 4072771.682 16737894.616 10 0 59530 51300.00000 0 16694220.796 4543061.147 18762546.551 10 0 59530 52200.00000 0 14381577.625 5237125.048 20423378.229 10 0 59530 53100.00000 0 11958078.912 6163318.227 21688206.483 10 0 59530 54000.00000 0 9490615.644 7317820.553 22532513.138 10 0 59530 54900.00000 0 7045429.756 8684606.328 22939916.216 10 0 59530 55800.00000 0 4685546.885 10235937.262 22902485.839 10 0 59530 56700.00000 0 2468355.608 11933359.565 22420899.058 10 0 59530 57600.00000 0 443432.520 13729164.834 21504430.627 10 0 59530 58500.00000 0 -1349297.529 15568255.137 20170779.584 10 0 59530 59400.00000 0 -2880990.587 17390335.840 18445734.382 10 0 59530 60300.00000 0 -4134843.520 19132345.900 16362682.194 10 0 59530 61200.00000 0 -5106545.298 20731025.075 13961970.900 10 0 59530 62100.00000 0 -5804201.391 22125511.346 11290135.101 10 0 59530 63000.00000 0 -6247734.935 23259860.357 8399000.218 10 0 59530 63900.00000 0 -6467790.074 24085380.988 5344681.385 10 0 59530 64800.00000 0 -6504184.060 24562688.566 2186496.002 10 0 59530 65700.00000 0 -6403973.806 24663388.903 -1014188.989 10 0 59530 66600.00000 0 -6219219.045 24371321.302 -4195152.490 10 0 59530 67500.00000 0 -6004537.369 23683307.267 -7294533.623 10 0 59530 68400.00000 0 -5814555.411 22609372.331 -10252040.798 10 0 59530 69300.00000 0 -5701365.061 21172430.709 -13010131.139 10 0 59530 70200.00000 0 -5712093.451 19407445.279 -15515136.537 10 0 59530 71100.00000 0 -5886690.732 17360097.534 -17718313.761 10 0 59530 72000.00000 0 -6256030.268 15085023.021 -19576797.549 10 0 59530 72900.00000 0 -6840402.655 12643685.958 -21054437.849 10 0 59530 73800.00000 0 -7648468.141 10101981.877 -22122504.782 10 0 59530 74700.00000 0 -8676712.491 7527668.544 -22760247.591 10 0 59530 75600.00000 0 -9909430.002 4987732.274 -22955296.970 10 0 59530 76500.00000 0 -11319235.069 2545799.313 -22703903.185 10 0 59530 77400.00000 0 -12868081.304 259699.888 -22011005.672 10 0 59530 78300.00000 0 -14508745.855 -1820714.183 -20890133.065 10 0 59530 79200.00000 0 -16186716.957 -3655408.222 -19363135.833 10 0 59530 80100.00000 0 -17842405.730 -5215584.135 -17459756.928 10 0 59530 81000.00000 0 -19413589.543 -6484622.685 -15217048.943 10 0 59530 81900.00000 0 -20837984.537 -7458510.807 -12678649.232 10 0 59530 82800.00000 0 -22055839.299 -8145737.726 -9893927.253 10 0 59530 83700.00000 0 -23012440.796 -8566666.057 -6917020.944 10 0 59530 84600.00000 0 -23660427.346 -8752406.101 -3805781.029 10 0 59530 85500.00000 0 -23961811.444 -8743242.360 -620644.227 10 0 59531 0.00000 0 -23889627.562 -8586680.154 2576542.190 10 0 59531 900.00000 0 -23429135.733 -8335195.923 5723723.035 10 0 59531 1800.00000 0 -22578530.688 -8043787.422 8759837.059 10 0 59531 2700.00000 0 -21349126.855 -7767427.742 11626000.336 10 0 59531 3600.00000 0 -19765011.592 -7558531.275 14266643.999 10 0 59531 4500.00000 0 -17862181.247 -7464538.724 16630586.178 10 0 59531 5400.00000 0 -15687196.112 -7525723.072 18672017.593 10 0 59531 6300.00000 0 -13295410.044 -7773308.882 20351382.432 10 0 59531 7200.00000 0 -10748848.167 -8227984.062 21636138.139 10 0 59531 8100.00000 0 -8113820.197 -8898866.678 22501380.312 10 0 59531 9000.00000 0 -5458367.679 -9782970.511 22930321.331 10 0 59531 9900.00000 0 -2849650.087 -10865192.228 22914614.054 10 0 59531 10800.00000 0 -351377.041 -12118821.506 22454514.652 10 0 59531 11700.00000 0 1978608.057 -13506553.805 21558881.463 10 0 59531 12600.00000 0 4090493.845 -14981964.543 20245009.561 10 0 59531 13500.00000 0 5944327.412 -16491384.332 18538303.680 10 0 59531 14400.00000 0 7511426.344 -17976098.010 16471794.911 10 0 59531 15300.00000 0 8775318.283 -19374776.443 14085509.592 10 0 59531 16200.00000 0 9732169.471 -20626040.008 11425701.601 10 0 59531 17100.00000 0 10390684.848 -21671046.770 8543961.943 10 0 59531 18000.00000 0 10771484.248 -22455996.617 5496222.257 10 0 59531 18900.00000 0 10905981.306 -22934445.949 2341671.087 10 0 59531 19800.00000 0 10834812.655 -23069334.581 -858396.248 10 0 59531 20700.00000 0 10605884.174 -22834638.733 -4041771.583 10 0 59531 21600.00000 0 10272117.426 -22216579.456 -7146547.917 10 0 59531 22500.00000 0 9888992.254 -21214334.163 -10112329.348 10 0 59531 23400.00000 0 9511990.359 -19840220.181 -12881412.508 10 0 59531 24300.00000 0 9194048.985 -18119341.452 -15399915.745 10 0 59531 25200.00000 0 8983133.432 -16088712.326 -17618833.402 10 0 59531 26100.00000 0 8920032.002 -13795894.497 -19494994.058 10 0 59531 27000.00000 0 9036467.530 -11297203.677 -20991903.754 10 0 59531 27900.00000 0 9353605.997 -8655560.681 -22080457.675 10 0 59531 28800.00000 0 9881025.869 -5938076.515 -22739506.440 10 0 59531 29700.00000 0 10616192.137 -3213472.025 -22956266.205 10 0 59531 30600.00000 0 11544457.651 -549439.395 -22726564.879 10 0 59531 31500.00000 0 12639591.965 1989944.850 -22054919.971 10 0 59531 32400.00000 0 13864815.705 4346648.174 -20954446.832 10 0 59531 33300.00000 0 15174297.060 6470851.300 -19446599.356 10 0 59531 34200.00000 0 16515047.560 8322768.906 -17560748.337 10 0 59531 35100.00000 0 17829137.418 9874047.054 -15333605.867 10 0 59531 36000.00000 0 19056137.259 11108680.430 -12808507.059 10 0 59531 36900.00000 0 20135683.416 12023412.549 -10034563.264 10 0 59531 37800.00000 0 21010058.788 12627603.949 -7065703.435 10 0 59531 38700.00000 0 21626680.507 12942575.636 -3959622.491 10 0 59531 39600.00000 0 21940389.634 13000457.117 -776657.521 10 0 59531 40500.00000 0 21915446.420 12842589.122 2421386.029 10 0 59531 41400.00000 0 21527147.162 12517549.767 5572435.078 10 0 59531 42300.00000 0 20762994.596 12078888.561 8615352.882 10 0 59531 43200.00000 0 19623372.664 11582664.725 11491122.802 10 0 59531 44100.00000 0 18121697.221 11084894.300 14143988.974 10 0 59531 45000.00000 0 16284036.273 10639013.944 16522531.951 10 0 59531 45900.00000 0 14148215.331 10293468.402 18580658.970 10 0 59531 46800.00000 0 11762444.807 10089523.092 20278490.355 10 0 59531 47700.00000 0 9183526.101 10059393.600 21583125.597 10 0 59531 48600.00000 0 6474710.209 10224770.519 22469275.143 10 0 59531 49500.00000 0 3703296.795 10595801.432 22919746.432 10 0 59531 50400.00000 0 938072.317 11170572.863 22925775.342 10 0 59531 51300.00000 0 -1753307.822 11935114.221 22487196.993 10 0 59531 52200.00000 0 -4306885.892 12863924.204 21612452.650 10 0 59531 53100.00000 0 -6664811.926 13920998.394 20318432.306 10 0 59531 54000.00000 0 -8777498.493 15061316.003 18630155.385 10 0 59531 54900.00000 0 -10605431.630 16232724.529 16580294.916 10 0 59531 55800.00000 0 -12120563.301 17378144.185 14208553.395 10 0 59531 56700.00000 0 -13307228.076 18438000.507 11560901.417 10 0 59531 57600.00000 0 -14162546.177 19352783.445 8688692.890 10 0 59531 58500.00000 0 -14696296.334 20065625.475 5647673.239 10 0 59531 59400.00000 0 -14930264.093 20524790.010 2496899.404 10 0 59531 60300.00000 0 -14897093.313 20685964.595 -702407.660 10 0 59531 61200.00000 0 -14638689.620 20514261.436 -3888055.336 10 0 59531 62100.00000 0 -14204243.648 19985839.633 -6998093.051 10 0 59531 63000.00000 0 -13647958.197 19089079.421 -9972023.022 10 0 59531 63900.00000 0 -13026576.062 17825257.565 -12751983.644 10 0 59531 64800.00000 0 -12396813.881 16208694.044 -15283881.775 10 0 59531 65700.00000 0 -11812811.389 14266362.652 -17518451.151 10 0 59531 66600.00000 0 -11323704.681 12036980.855 -19412215.748 10 0 59531 67500.00000 0 -10971426.796 9569616.191 -20928338.979 10 0 59531 68400.00000 0 -10788829.082 6921866.888 -22037342.103 10 0 59531 69300.00000 0 -10798203.100 4157692.266 -22717677.828 10 0 59531 70200.00000 0 -11010265.666 1344983.113 -22956148.199 10 0 59531 71100.00000 0 -11423649.973 -1447027.116 -22748158.880 10 0 59531 72000.00000 0 -12024924.254 -4150402.714 -22097805.214 10 0 59531 72900.00000 0 -12789137.082 -6701088.335 -21017788.686 10 0 59531 73800.00000 0 -13680866.238 -9041326.942 -19529165.649 10 0 59531 74700.00000 0 -14655726.766 -11121813.083 -17660933.421 10 0 59531 75600.00000 0 -15662274.477 -12903492.818 -15449461.942 10 0 59531 76500.00000 0 -16644224.510 -14358936.372 -12937782.160 10 0 59531 77400.00000 0 -17542891.200 -15473227.536 -10174745.164 10 0 59531 78300.00000 0 -18299746.173 -16244334.135 -7214068.608 10 0 59531 79200.00000 0 -18858986.610 -16682945.707 -4113289.156 10 0 59531 80100.00000 0 -19170005.120 -16811786.828 -932641.728 10 0 59531 81000.00000 0 -19189656.959 -16664436.582 2266112.388 10 0 59531 81900.00000 0 -18884228.814 -16283705.381 5420885.480 10 0 59531 82800.00000 0 -18231026.100 -15719638.715 8470467.750 10 0 59531 83700.00000 0 -17219511.811 -15027233.031 11355712.579 10 0 59531 84600.00000 0 -15851948.844 -14263960.665 14020679.789 10 0 59531 85500.00000 0 -14143518.578 -13487208.505 16413714.897 10 0 59532 0.00000 0 -12121910.542 -12751738.410 18488443.805 10 0 59532 900.00000 0 -9826398.583 -12107275.643 20204665.354 10 0 59532 1800.00000 0 -7306444.176 -11596327.387 21529122.493 10 0 59532 2700.00000 0 -4619880.465 -11252321.175 22436141.705 10 0 59532 3600.00000 0 -1830754.054 -11098141.963 22908126.208 10 0 59532 4500.00000 0 993088.078 -11145128.484 22935895.152 10 0 59532 5400.00000 0 3782567.642 -11392570.909 22518862.423 10 0 59532 6300.00000 0 6469994.975 -11827731.002 21665051.634 10 0 59532 7200.00000 0 8991632.468 -12426384.278 20390946.741 10 0 59532 8100.00000 0 11290096.390 -13153862.075 18721180.584 10 0 59532 9000.00000 0 13316498.407 -13966550.510 16688066.528 10 0 59532 9900.00000 0 15032238.525 -14813784.218 14330981.325 10 0 59532 10800.00000 0 16410375.442 -15640056.027 11695610.122 10 0 59532 11700.00000 0 17436517.460 -16387450.087 8833067.244 10 0 59532 12600.00000 0 18109197.036 -16998196.354 5798909.181 10 0 59532 13500.00000 0 18439713.359 -17417238.544 2652058.332 10 0 59532 14400.00000 0 18451449.784 -17594706.760 -546341.743 10 0 59532 15300.00000 0 18178695.098 -17488189.670 -3734117.087 10 0 59532 16200.00000 0 17665018.600 -17064709.170 -6849276.593 10 0 59532 17100.00000 0 16961268.007 -16302312.848 -9831223.466 10 0 59532 18000.00000 0 16123275.236 -15191215.529 -12621940.541 10 0 59532 18900.00000 0 15209367.684 -13734440.296 -15167125.592 10 0 59532 19800.00000 0 14277790.816 -11947930.529 -17417253.875 10 0 59532 20700.00000 0 13384151.650 -9860126.978 -19328546.548 10 0 59532 21600.00000 0 12578991.656 -7511026.459 -20863825.832 10 0 59532 22500.00000 0 11905591.974 -4950760.644 -21993240.108 10 0 59532 23400.00000 0 11398103.793 -2237753.703 -22694844.829 10 0 59532 24300.00000 0 11080082.804 563464.912 -22955028.154 10 0 59532 25200.00000 0 10963489.356 3384701.825 -22768773.333 10 0 59532 26100.00000 0 11048196.180 6156693.919 -22139752.994 10 0 59532 27000.00000 0 11322024.009 8811747.785 -21080253.842 10 0 59532 27900.00000 0 11761303.108 11286315.145 -19610933.467 10 0 59532 28800.00000 0 12331936.543 13523397.527 -17760414.186 10 0 59532 29700.00000 0 12990919.824 15474680.852 -15564721.985 10 0 59532 30600.00000 0 13688252.340 17102311.856 -13066581.580 10 0 59532 31500.00000 0 14369159.452 18380243.243 -10314581.471 10 0 59532 32400.00000 0 14976531.014 19295092.645 -7362225.446 10 0 59532 33300.00000 0 15453472.957 19846480.859 -4266889.153 10 0 59532 34200.00000 0 15745863.849 20046836.608 -1088702.428 10 0 59532 35100.00000 0 15804808.170 19920677.612 2110620.589 10 0 59532 36000.00000 0 15588882.461 19503399.597 5268980.518 10 0 59532 36900.00000 0 15066079.367 18839625.491 8325097.374 10 0 59532 37800.00000 0 14215367.405 17981185.376 11219697.241 10 0 59532 38700.00000 0 13027800.487 16984813.007 13896658.075 10 0 59532 39600.00000 0 11507130.266 15909656.318 16304092.545 10 0 59532 40500.00000 0 9669895.103 14814706.770 18395347.441 10 0 59532 41400.00000 0 7544981.292 13756255.425 20129900.961 10 0 59532 42300.00000 0 5172674.079 12785482.209 21474141.177 10 0 59532 43200.00000 0 2603237.030 11946278.894 22402011.520 10 0 59532 44100.00000 0 -104922.393 11273396.465 22895511.530 10 0 59532 45000.00000 0 -2887426.050 10790993.846 22945043.766 10 0 59532 45900.00000 0 -5676348.441 10511648.273 22549600.573 10 0 59532 46800.00000 0 -8402791.051 10435868.438 21716787.135 10 0 59532 47700.00000 0 -10999502.334 10552130.703 20462680.113 10 0 59532 48600.00000 0 -13403435.895 10837437.032 18811524.036 10 0 59532 49500.00000 0 -15558141.816 11258371.570 16795270.474 10 0 59532 50400.00000 0 -17415892.419 11772611.985 14452967.957 10 0 59532 51300.00000 0 -18939454.573 12330832.519 11830013.422 10 0 59532 52200.00000 0 -20103435.112 12878919.155 8977278.733 10 0 59532 53100.00000 0 -20895143.087 13360403.731 5950128.501 10 0 59532 54000.00000 0 -21314932.778 13719014.227 2807347.671 10 0 59532 54900.00000 0 -21376013.179 13901233.243 -390000.426 10 0 59532 55800.00000 0 -21103731.845 13858755.809 -3579763.196 10 0 59532 56700.00000 0 -20534363.458 13550741.649 -6699911.559 10 0 59532 57600.00000 0 -19713454.357 12945765.458 -9689752.139 10 0 59532 58500.00000 0 -18693793.200 12023381.286 -12491114.453 10 0 59532 59400.00000 0 -17533093.906 10775233.466 -15049489.226 10 0 59532 60300.00000 0 -16291489.195 9205665.671 -17315094.994 10 0 59532 61200.00000 0 -15028941.058 7331801.013 -19243851.566 10 0 59532 62100.00000 0 -13802677.870 5183088.458 -20798241.105 10 0 59532 63000.00000 0 -12664766.509 2800333.382 -21948039.885 10 0 59532 63900.00000 0 -11659921.981 234251.931 -22670906.502 10 0 59532 64800.00000 0 -10823646.711 -2456391.219 -22952815.276 10 0 59532 65700.00000 0 -10180777.526 -5206984.652 -22788326.718 10 0 59532 66600.00000 0 -9744501.039 -7949520.225 -22180690.067 10 0 59532 67500.00000 0 -9515878.162 -10615189.731 -21141776.239 10 0 59532 68400.00000 0 -9483896.995 -13137020.574 -19691842.726 10 0 59532 69300.00000 0 -9626050.992 -15452441.093 -17859135.231 10 0 59532 70200.00000 0 -9909417.163 -17505669.280 -15679333.931 10 0 59532 71100.00000 0 -10292187.972 -19249825.981 -13194855.266 10 0 59532 72000.00000 0 -10725591.492 -20648685.165 -10454022.981 10 0 59532 72900.00000 0 -11156117.990 -21677989.104 -7510124.761 10 0 59532 73800.00000 0 -11527958.230 -22326274.602 -4420372.960 10 0 59532 74700.00000 0 -11785549.890 -22595176.801 -1244790.053 10 0 59532 75600.00000 0 -11876123.981 -22499199.215 1954959.248 10 0 59532 76500.00000 0 -11752143.265 -22064960.901 5116766.200 10 0 59532 77400.00000 0 -11373529.367 -21329953.641 8179282.937 10 0 59532 78300.00000 0 -10709584.270 -20340862.461 11083110.567 10 0 59532 79200.00000 0 -9740524.902 -19151520.922 13771947.475 10 0 59532 80100.00000 0 -8458565.868 -17820587.663 16193675.697 10 0 59532 81000.00000 0 -6868504.371 -16409042.026 18301364.817 10 0 59532 81900.00000 0 -4987782.135 -14977603.758 20054174.611 10 0 59532 82800.00000 0 -2846020.953 -13584184.626 21418139.646 10 0 59532 83700.00000 0 -484050.234 -12281478.067 22366821.539 10 0 59532 84600.00000 0 2047534.230 -11114786.983 22881817.015 10 0 59532 85500.00000 0 4690221.593 -10120179.754 22953112.517 10 0 59533 0.00000 0 7379771.771 -9323050.807 22579278.997 10 0 59533 900.00000 0 10048648.008 -8737144.880 21767502.866 10 0 59533 1800.00000 0 12628593.007 -8364086.337 20533452.879 10 0 59533 2700.00000 0 15053247.913 -8193431.521 18900984.292 10 0 59533 3600.00000 0 17260702.897 -8203243.014 16901685.585 10 0 59533 4500.00000 0 19195875.513 -8361161.346 14574275.442 10 0 59533 5400.00000 0 20812618.188 -8625929.420 11963860.653 10 0 59533 6300.00000 0 22075467.268 -8949305.726 9121068.333 10 0 59533 7200.00000 0 22960960.500 -9278285.864 6101068.577 10 0 59533 8100.00000 0 23458467.748 -9557538.588 2962505.985 10 0 59533 9000.00000 0 23570499.765 -9731953.078 -233639.456 10 0 59533 9900.00000 0 23312481.858 -9749189.164 -3425239.769 10 0 59533 10800.00000 0 22712001.958 -9562121.810 -6550231.160 10 0 59533 11700.00000 0 21807564.568 -9131075.194 -9547826.818 10 0 59533 12600.00000 0 20646903.259 -8425750.555 -12359705.889 10 0 59533 13500.00000 0 19284923.107 -7426764.849 -14931154.714 10 0 59533 14400.00000 0 17781360.132 -6126733.626 -17212137.442 10 0 59533 15300.00000 0 16198256.812 -4530850.973 -19158274.508 10 0 59533 16200.00000 0 14597360.410 -2656940.671 -20731709.606 10 0 59533 17100.00000 0 13037553.843 -534975.027 -21901848.116 10 0 59533 18000.00000 0 11572427.373 1793919.513 -22645952.584 10 0 59533 18900.00000 0 10248093.063 4278929.344 -22949583.889 10 0 59533 19800.00000 0 9101333.470 6861432.816 -22806879.788 10 0 59533 20700.00000 0 8158161.831 9477213.555 -22220665.705 10 0 59533 21600.00000 0 7432853.343 12058916.314 -21202395.942 10 0 59533 22500.00000 0 6927487.275 14538643.385 -19771926.692 10 0 59533 23400.00000 0 6632018.034 16850583.747 -17957125.480 10 0 59533 24300.00000 0 6524870.986 18933565.754 -15793324.779 10 0 59533 25200.00000 0 6574036.722 20733427.391 -13322630.543 10 0 59533 26100.00000 0 6738616.468 22205105.628 -10593099.268 10 0 59533 27000.00000 0 6970752.353 23314358.268 -7657799.780 10 0 59533 27900.00000 0 7217860.002 24039047.057 -4573778.184 10 0 59533 28800.00000 0 7425068.303 24369929.223 -1400946.490 10 0 59533 29700.00000 0 7537762.472 24310925.300 1799083.183 10 0 59533 30600.00000 0 7504122.322 23878853.085 4964195.868 10 0 59533 31500.00000 0 7277548.042 23102639.965 8032978.837 10 0 59533 32400.00000 0 6818870.604 22022047.647 10945911.046 10 0 59533 33300.00000 0 6098253.220 20685963.662 13646513.875 10 0 59533 34200.00000 0 5096703.400 19150331.906 16082440.996 10 0 59533 35100.00000 0 3807131.561 17475809.292 18206486.743 10 0 59533 36000.00000 0 2234911.169 15725246.670 19977494.102 10 0 59533 36900.00000 0 397916.244 13961099.153 21361145.416 10 0 59533 37800.00000 0 -1673966.317 12242873.532 22330621.417 10 0 59533 38700.00000 0 -3939830.439 10624718.602 22867116.558 10 0 59533 39600.00000 0 -6349210.474 9153258.118 22960201.311 10 0 59533 40500.00000 0 -8843947.511 7865755.818 22608024.813 10 0 59533 41400.00000 0 -11360386.395 6788688.163 21817354.056 10 0 59533 42300.00000 0 -13831813.621 5936783.629 20603448.584 10 0 59533 43200.00000 0 -16191036.266 5312568.036 18989772.620 10 0 59533 44100.00000 0 -18372995.997 4906434.505 17007549.335 10 0 59533 45000.00000 0 -20317310.160 4697234.885 14695164.943 10 0 59533 45900.00000 0 -21970634.872 4653367.742 12097433.136 10 0 59533 46800.00000 0 -23288751.739 4734317.131 9264733.127 10 0 59533 47700.00000 0 -24238290.937 4892577.349 6252037.262 10 0 59533 48600.00000 0 -24798018.275 5075882.356 3117846.535 10 0 59533 49500.00000 0 -24959631.824 5229645.321 -76945.599 10 0 59533 50400.00000 0 -24728034.210 5299504.667 -3270238.816 10 0 59533 51300.00000 0 -24121068.707 5233868.048 -6399937.486 10 0 59533 52200.00000 0 -23168729.891 4986345.544 -9405164.060 10 0 59533 53100.00000 0 -21911881.910 4517967.880 -12227449.774 10 0 59533 54000.00000 0 -20400538.290 3799094.353 -14811878.786 10 0 59533 54900.00000 0 -18691775.857 2810928.367 -17108162.750 10 0 59533 55800.00000 0 -16847370.834 1546575.101 -19071624.246 10 0 59533 56700.00000 0 -14931256.794 11595.278 -20664069.594 10 0 59533 57600.00000 0 -13006911.497 -1775969.677 -21854533.891 10 0 59533 58500.00000 0 -11134782.480 -3786103.294 -22619883.755 10 0 59533 59400.00000 0 -9369859.311 -5977830.431 -22945266.253 10 0 59533 60300.00000 0 -7759493.957 -8300702.730 -22824395.556 10 0 59533 61200.00000 0 -6341560.112 -10696691.690 -22259672.019 10 0 59533 62100.00000 0 -5143027.752 -13102410.910 -21262131.715 10 0 59533 63000.00000 0 -4179011.613 -15451575.203 -19851227.613 10 0 59533 63900.00000 0 -3452332.278 -17677594.236 -18054446.898 10 0 59533 64800.00000 0 -2953606.866 -19716192.816 -15906772.011 10 0 59533 65700.00000 0 -2661864.039 -21507948.711 -13449995.986 10 0 59533 66600.00000 0 -2545656.007 -23000642.256 -10731905.606 10 0 59533 67500.00000 0 -2564619.215 -24151319.925 -7805348.407 10 0 59533 68400.00000 0 -2671416.578 -24927986.012 -4727201.881 10 0 59533 69300.00000 0 -2813978.108 -25310852.131 -1557265.305 10 0 59533 70200.00000 0 -2937944.241 -25293092.889 1642903.961 10 0 59533 71100.00000 0 -2989207.793 -24881076.824 4811186.784 10 0 59533 72000.00000 0 -2916446.448 -24094063.751 7886107.575 10 0 59533 72900.00000 0 -2673538.332 -22963381.998 10808025.054 10 0 59533 73800.00000 0 -2221758.246 -21531120.749 13520285.443 10 0 59533 74700.00000 0 -1531661.685 -19848392.829 15970315.798 10 0 59533 75600.00000 0 -584576.939 -17973240.995 18110636.811 10 0 59533 76500.00000 0 626357.892 -15968275.282 19899776.099 10 0 59533 77400.00000 0 2095657.036 -13898139.952 21303064.976 10 0 59533 78300.00000 0 3805471.640 -11826915.150 22293304.212 10 0 59533 79200.00000 0 5726098.516 -9815560.842 22851286.615 10 0 59533 80100.00000 0 7816992.975 -7919508.604 22966166.993 10 0 59533 81000.00000 0 10028244.959 -6186500.492 22635672.736 10 0 59533 81900.00000 0 12302458.557 -4654763.890 21866151.049 10 0 59533 82800.00000 0 14576958.168 -3351597.460 20672451.705 10 0 59533 83700.00000 0 16786231.005 -2292426.234 19077647.040 10 0 59533 84600.00000 0 18864505.519 -1480364.609 17112593.781 10 0 59533 85500.00000 0 20748359.345 -906305.021 14815344.267 99